JA3VQW-13 Hirakata JP current weather conditions

sailwx.info

Wind from 315

Air temperature 22.2° C
Dewpoint 11.9° C

Last reported at 2014-Oct-31 19:29 UTC.
Time now 2014-Nov-01 00:27 UTC

Location: N 34°48' E 135°40'.
View on Google Maps.

See reports from other nearby stations

  
Tides and Currents Weather Stations Pressure Air Temp Water Temp Dewpoint Dewpoint Depression Visibility Wind Speed Wind Dir Waves Ship Positions
date/time (UTC)wind fromknots sea level pressurealtimeterstation pressurevisibilityair tempwater tempwave heightnotes
2014-Oct-31 19:29 315 22.2
2014-Oct-31 18:59 315 22.2
2014-Oct-31 18:29 315 22.2
2014-Oct-31 17:59 315 22.2
2014-Oct-31 17:29 315 22.2
2014-Oct-31 16:59 315 22.2
2014-Oct-31 16:29 315 22.2
2014-Oct-31 15:59 315 22.2
2014-Oct-31 15:29 315 22.2
2014-Oct-31 14:59 315 22.2
2014-Oct-31 14:29 315 22.2
2014-Oct-31 13:59 315 22.2
2014-Oct-31 13:29 315 22.2
2014-Oct-31 12:59 315 22.2
2014-Oct-31 12:29 315 22.2
2014-Oct-31 11:59 315 22.2
2014-Oct-31 11:29 315 22.2
2014-Oct-31 10:59 315 22.2
2014-Oct-31 10:29 315 22.2
2014-Oct-31 09:59 315 22.2
2014-Oct-31 09:29 315 22.2
2014-Oct-31 08:59 315 22.2
2014-Oct-31 08:29 315 22.2
2014-Oct-31 07:59 315 22.2
2014-Oct-31 07:29 315 22.2
2014-Oct-31 06:59 315 22.2
2014-Oct-31 06:29 315 22.2
2014-Oct-31 05:59 315 22.2
2014-Oct-31 05:29 315 22.2
2014-Oct-31 04:59 315 22.2
2014-Oct-31 04:29 315 22.2
2014-Oct-31 03:59 315 21.7
2014-Oct-31 03:29 315 21.1
2014-Oct-31 02:59 292 21.7
2014-Oct-31 02:29 292 21.7
2014-Oct-31 01:59 180 21.1
2014-Oct-31 01:29 292 19.4
2014-Oct-31 00:59 292 19.4
2014-Oct-31 00:29 242 19.4
2014-Oct-30 23:59 225 18.3
2014-Oct-30 23:57 225 18.3
2014-Oct-30 23:29 270 17.8
2014-Oct-30 22:59 270 17.8
2014-Oct-30 22:29 248 17.2
2014-Oct-30 21:59 248 17.2
2014-Oct-30 21:38 202 17.2
2014-Oct-30 21:29 268 17.2
2014-Oct-30 20:59 248 17.2
2014-Oct-30 20:29 248 16.7
2014-Oct-30 19:59 248 17.2
2014-Oct-30 19:29 225 17.2
2014-Oct-30 18:59 292 17.2
2014-Oct-30 18:29 270 17.2
2014-Oct-30 17:59 315 17.2
2014-Oct-30 17:29 315 17.8
2014-Oct-30 16:59 270 17.8
2014-Oct-30 16:29 248 17.8
2014-Oct-30 15:59 261 17.8
2014-Oct-30 15:29 315 17.8
2014-Oct-30 14:59 315 18.3
2014-Oct-30 14:29 270 18.3
2014-Oct-30 13:59 230 18.3
2014-Oct-30 13:29 315 18.9
2014-Oct-30 12:59 315 18.9
2014-Oct-30 12:29 282 18.9
2014-Oct-30 11:59 270 18.3
2014-Oct-30 11:40 248 18.3
2014-Oct-30 11:10 225 18.9
2014-Oct-30 10:40 225 18.9
2014-Oct-30 10:10 292 20.0
2014-Oct-30 09:49 315 20.0
2014-Oct-30 09:19 315 20.6
2014-Oct-30 08:49 292 21.1
2014-Oct-30 08:19 292 21.7
2014-Oct-30 07:57 292 22.8
2014-Oct-30 07:27 292 25.0
2014-Oct-30 06:57 292 27.8
2014-Oct-30 06:27 292 28.9
2014-Oct-30 05:57 292 29.4
2014-Oct-30 05:27 292 28.9
2014-Oct-30 04:57 292 28.3
2014-Oct-30 04:27 292 27.8
2014-Oct-30 03:57 270 27.2
2014-Oct-30 03:27 270 26.7
2014-Oct-30 02:57 315 25.6
2014-Oct-30 02:27 270 24.4
2014-Oct-30 01:57 248 23.3
2014-Oct-30 01:27 270 21.7
2014-Oct-30 00:57 202 19.4
2014-Oct-30 00:27 225 17.2
2014-Oct-30 00:17 180 16.7